Weather in Istobnoe

Russia / Voronezh Oblast     51°15′44″N   38°39′30″E
temp.,
°C
wind,
m/s
gust,
m/s
humid.,
%
clouds,
%
prec.,
mm/h
press.,
hPa
HPBL,
m
7 march, sun
sun700:00−6wnw48780 0.0 1020436
03:00−7w59800 0.0 1020401
06:00−7wsw49930 0.0 1019294
09:00−5wsw7128143 0.0 1017776
12:00−2wsw9145991 0.0 10151070
15:00−1sw11175296 0.0 10101287
18:00−1wsw91861100 0.0 10071326
21:00−1wsw111886100 0.1 10061085
8 march, mon
mon800:00−1wsw91689100 0.1 10061040
03:00−3wnw4980100 1.8 1006480
06:00−2wsw4798100 1.7 1005439
09:00−1w71295100 3.3 1005864
12:000w6989100 0.9 1006976
15:000w71073100 1.3 10061346
18:00−4wnw5108273 0.1 1007399
21:00−5wnw398945 0.1 1009294
9 march, tue
tue900:00−5wnw479294 0.0 1010342
03:00−5nw349497 0.4 1011334
06:00−7nw369392 0.1 1013262
09:00−8nw468790 0.1 1014317
12:00−6nw468153 0.0 1015672
15:00−6nw567977 0.1 1017888
18:00−7nw5783100 0.1 1018719
21:00−9nnw478876 0.1 1020363
10 march, wed
wed1000:00−10nw359262 0.0 1021389
03:00−12nw369279 0.1 1023280
06:00−13nw36920 0.0 1024245
09:00−13nnw35870 0.0 1025307
12:00−10nnw45690 0.0 1026635
15:00−9nnw346437 0.0 1026734
18:00−10nnw347398 0.0 1026344
21:00−11nne238092 0.0 1028136
11 march, thu
thu1100:00−12ene238279 0.0 102989
03:00−13ese238848 0.0 1030116
06:00−14ese238837 0.0 1030106
09:00−12se348252 0.0 1031241
12:00−8sse346951 0.0 1031500
15:00−6sse346428 0.0 1029743
18:00−7se34720 0.0 102978
21:00−8sse49730 0.0 1029188